Time,TemperatureF,DewpointF,PressureIn,WindDirection,WindDirectionDegrees,WindSpeedMPH,WindSpeedGustMPH,Humidity,HourlyPrecipIn,Conditions,Clouds,dailyrainin,SoftwareType,DateUTC
2013-06-23 01:42:00,60.0,60.0,30.25,South,172,0.0,17.0,99,0.00,,,0.00,,2013-06-23 05:42:00,
2013-06-23 01:52:00,60.0,60.0,30.25,South,172,0.0,17.0,99,0.00,,,0.00,,2013-06-23 05:52:00,
2013-06-23 02:02:00,60.0,60.0,30.25,South,172,0.0,17.0,99,0.00,,,0.00,,2013-06-23 06:02:00,
2013-06-23 02:12:00,60.0,60.0,30.25,South,172,0.0,17.0,99,0.00,,,0.00,,2013-06-23 06:12:00,
2013-06-23 02:22:00,60.0,60.0,30.25,South,172,0.0,17.0,99,0.00,,,0.00,,2013-06-23 06:22:00,
2013-06-23 02:43:00,60.0,60.0,30.24,South,172,0.0,17.0,99,0.00,,,0.00,,2013-06-23 06:43:00,
2013-06-23 02:52:00,60.0,60.0,30.24,South,172,0.0,17.0,99,0.00,,,0.00,,2013-06-23 06:52:00,
2013-06-23 03:02:00,60.0,60.0,30.24,South,172,0.0,17.0,99,0.00,,,0.00,,2013-06-23 07:02:00,
2013-06-23 03:12:00,60.0,60.0,30.23,South,172,0.0,17.0,99,0.00,,,0.00,,2013-06-23 07:12:00,
2013-06-23 03:22:00,60.0,60.0,30.23,South,172,0.0,17.0,99,0.00,,,0.00,,2013-06-23 07:22:00,
2013-06-23 03:34:00,60.0,60.0,30.23,South,172,0.0,17.0,99,0.00,,,0.00,,2013-06-23 07:34:00,
2013-06-23 03:43:00,60.0,60.0,30.23,South,172,0.0,17.0,99,0.00,,,0.00,,2013-06-23 07:43:00,
2013-06-23 03:53:00,60.0,60.0,30.23,South,172,0.0,17.0,99,0.00,,,0.00,,2013-06-23 07:53:00,
2013-06-23 04:43:00,60.0,60.0,30.22,South,172,0.0,17.0,99,0.00,,,0.00,,2013-06-23 08:43:00,
2013-06-23 04:53:00,60.0,60.0,30.22,South,172,0.0,17.0,99,0.00,,,0.00,,2013-06-23 08:53:00,
2013-06-23 05:02:00,60.0,60.0,30.22,South,172,0.0,17.0,99,0.00,,,0.00,,2013-06-23 09:02:00,
2013-06-23 05:12:00,59.0,59.0,30.22,South,172,0.0,17.0,99,0.00,,,0.00,,2013-06-23 09:12:00,
2013-06-23 05:22:00,59.0,59.0,30.22,South,172,0.0,17.0,99,0.00,,,0.00,,2013-06-23 09:22:00,
2013-06-23 05:34:00,59.0,59.0,30.22,South,172,0.0,17.0,99,0.00,,,0.00,,2013-06-23 09:34:00,
2013-06-23 05:43:00,59.0,59.0,30.22,South,172,0.0,17.0,99,0.00,,,0.00,,2013-06-23 09:43:00,
2013-06-23 05:53:00,59.0,59.0,30.22,South,172,0.0,17.0,99,0.00,,,0.00,,2013-06-23 09:53:00,
2013-06-23 06:02:00,59.0,59.0,30.22,South,172,0.0,17.0,99,0.00,,,0.00,,2013-06-23 10:02:00,
2013-06-23 06:12:00,59.0,59.0,30.22,South,172,0.0,17.0,99,0.00,,,0.00,,2013-06-23 10:12:00,
2013-06-23 06:22:00,59.0,59.0,30.22,South,172,0.0,17.0,99,0.00,,,0.00,,2013-06-23 10:22:00,
2013-06-23 06:34:00,59.0,59.0,30.22,South,172,0.0,17.0,99,0.00,,,0.00,,2013-06-23 10:34:00,
2013-06-23 06:43:00,59.0,59.0,30.22,South,172,0.0,17.0,99,0.00,,,0.00,,2013-06-23 10:43:00,
2013-06-23 06:53:00,59.0,59.0,30.22,South,172,0.0,17.0,99,0.00,,,0.00,,2013-06-23 10:53:00,
2013-06-23 07:02:00,59.0,59.0,30.22,South,172,0.0,17.0,99,0.00,,,0.00,,2013-06-23 11:02:00,
2013-06-23 07:11:00,60.0,60.0,30.23,South,172,0.0,17.0,99,0.00,,,0.00,,2013-06-23 11:11:00,
2013-06-23 07:22:00,60.0,60.0,30.23,South,172,0.0,17.0,99,0.00,,,0.00,,2013-06-23 11:22:00,
2013-06-23 07:33:00,60.0,60.0,30.23,South,172,0.0,17.0,99,0.00,,,0.00,,2013-06-23 11:33:00,
2013-06-23 07:43:00,63.0,63.0,30.24,South,172,0.0,17.0,99,0.00,,,0.00,,2013-06-23 11:43:00,
2013-06-23 07:53:00,63.0,63.0,30.24,South,172,0.0,17.0,99,0.00,,,0.00,,2013-06-23 11:53:00,
2013-06-23 08:01:00,63.0,63.0,30.24,South,172,0.0,17.0,99,0.00,,,0.00,,2013-06-23 12:01:00,
2013-06-23 08:12:00,63.0,63.0,30.24,SW,234,0.0,17.0,99,0.00,,,0.00,,2013-06-23 12:12:00,
2013-06-23 08:22:00,63.0,63.0,30.24,SW,234,0.0,17.0,99,0.00,,,0.00,,2013-06-23 12:22:00,
2013-06-23 08:33:00,63.0,63.0,30.24,SW,234,0.0,17.0,99,0.00,,,0.00,,2013-06-23 12:33:00,
2013-06-23 08:53:00,66.0,66.0,30.24,SSW,193,0.0,17.0,99,0.00,,,0.00,,2013-06-23 12:53:00,
2013-06-23 09:02:00,66.0,66.0,30.24,SSW,193,0.0,17.0,99,0.00,,,0.00,,2013-06-23 13:02:00,
2013-06-23 09:24:00,66.0,66.0,30.24,SSW,193,0.0,17.0,99,0.00,,,0.00,,2013-06-23 13:24:00,
2013-06-23 09:43:00,69.0,67.0,30.24,WSW,244,2.0,17.0,93,0.00,,,0.00,,2013-06-23 13:43:00,
2013-06-23 09:54:00,69.0,67.0,30.24,WSW,244,2.0,17.0,93,0.00,,,0.00,,2013-06-23 13:54:00,
2013-06-23 10:05:00,69.0,67.0,30.24,WSW,244,2.0,17.0,93,0.00,,,0.00,,2013-06-23 14:05:00,
2013-06-23 10:11:00,69.0,67.0,30.24,WSW,244,2.0,17.0,93,0.00,,,0.00,,2013-06-23 14:11:00,
2013-06-23 10:22:00,72.0,70.0,30.24,SSE,147,1.0,17.0,92,0.00,,,0.00,,2013-06-23 14:22:00,
2013-06-23 10:34:00,72.0,70.0,30.24,SSE,147,1.0,17.0,92,0.00,,,0.00,,2013-06-23 14:34:00,
2013-06-23 10:44:00,72.0,69.0,30.23,SE,141,0.0,17.0,90,0.00,,,0.00,,2013-06-23 14:44:00,
2013-06-23 10:52:00,72.0,69.0,30.23,SE,141,0.0,17.0,90,0.00,,,0.00,,2013-06-23 14:52:00,
2013-06-23 11:05:00,72.0,69.0,30.23,SE,141,0.0,17.0,90,0.00,,,0.00,,2013-06-23 15:05:00,
2013-06-23 11:12:00,75.0,71.0,30.22,SE,131,3.0,17.0,86,0.00,,,0.00,,2013-06-23 15:12:00,
2013-06-23 11:23:00,75.0,71.0,30.22,SE,131,3.0,17.0,86,0.00,,,0.00,,2013-06-23 15:23:00,
2013-06-23 11:35:00,75.0,71.0,30.22,SE,131,3.0,17.0,86,0.00,,,0.00,,2013-06-23 15:35:00,
2013-06-23 11:43:00,73.0,68.0,30.22,South,181,0.0,17.0,85,0.00,,,0.00,,2013-06-23 15:43:00,
2013-06-23 11:52:00,73.0,68.0,30.22,South,181,0.0,17.0,85,0.00,,,0.00,,2013-06-23 15:52:00,
2013-06-23 12:06:00,73.0,68.0,30.22,South,181,0.0,17.0,85,0.00,,,0.00,,2013-06-23 16:06:00,
2013-06-23 12:12:00,71.0,66.0,30.22,West,273,1.0,17.0,83,0.00,,,0.00,,2013-06-23 16:12:00,
2013-06-23 12:22:00,71.0,66.0,30.22,West,273,1.0,17.0,83,0.00,,,0.00,,2013-06-23 16:22:00,
2013-06-23 12:36:00,71.0,66.0,30.22,West,273,1.0,17.0,83,0.00,,,0.00,,2013-06-23 16:36:00,
2013-06-23 12:43:00,77.0,71.0,30.22,SSE,163,1.0,17.0,83,0.00,,,0.00,,2013-06-23 16:43:00,
2013-06-23 12:53:00,77.0,71.0,30.22,SSE,163,1.0,17.0,83,0.00,,,0.00,,2013-06-23 16:53:00,
2013-06-23 13:06:00,77.0,71.0,30.22,SSE,163,1.0,17.0,83,0.00,,,0.00,,2013-06-23 17:06:00,
2013-06-23 13:12:00,76.0,71.0,30.21,South,174,1.0,17.0,84,0.00,,,0.00,,2013-06-23 17:12:00,
2013-06-23 13:22:00,76.0,71.0,30.21,South,174,1.0,17.0,84,0.00,,,0.00,,2013-06-23 17:22:00,
2013-06-23 13:33:00,76.0,71.0,30.21,South,174,1.0,17.0,84,0.00,,,0.00,,2013-06-23 17:33:00,
2013-06-23 13:43:00,76.0,71.0,30.20,SE,135,1.0,17.0,85,0.00,,,0.00,,2013-06-23 17:43:00,
2013-06-23 13:53:00,76.0,71.0,30.20,SE,135,1.0,17.0,85,0.00,,,0.00,,2013-06-23 17:53:00,
2013-06-23 14:01:00,76.0,71.0,30.20,SE,135,1.0,17.0,85,0.00,,,0.00,,2013-06-23 18:01:00,
2013-06-23 14:22:00,76.0,70.0,30.19,South,189,5.0,17.0,82,0.00,,,0.00,,2013-06-23 18:22:00,
2013-06-23 14:34:00,76.0,70.0,30.19,South,189,5.0,17.0,82,0.00,,,0.00,,2013-06-23 18:34:00,
2013-06-23 14:43:00,76.0,70.0,30.19,South,189,5.0,17.0,82,0.00,,,0.00,,2013-06-23 18:43:00,
2013-06-23 14:53:00,76.0,70.0,30.19,South,189,5.0,17.0,82,0.00,,,0.00,,2013-06-23 18:53:00,
2013-06-23 15:22:00,75.0,71.0,30.18,SSE,156,2.0,17.0,86,0.00,,,0.00,,2013-06-23 19:22:00,
2013-06-23 15:32:00,75.0,71.0,30.18,SSE,156,2.0,17.0,86,0.00,,,0.00,,2013-06-23 19:32:00,
2013-06-23 15:43:00,75.0,71.0,30.18,SSE,156,2.0,17.0,86,0.00,,,0.00,,2013-06-23 19:43:00,
2013-06-23 15:53:00,75.0,71.0,30.18,SSE,156,2.0,17.0,86,0.00,,,0.00,,2013-06-23 19:53:00,
2013-06-23 16:12:00,74.0,71.0,30.17,SSW,195,4.0,17.0,90,0.00,,,0.00,,2013-06-23 20:12:00,
2013-06-23 16:24:00,74.0,71.0,30.17,SSW,195,4.0,17.0,90,0.00,,,0.00,,2013-06-23 20:24:00,
2013-06-23 16:34:00,74.0,71.0,30.17,SSW,195,4.0,17.0,90,0.00,,,0.00,,2013-06-23 20:34:00,
2013-06-23 16:42:00,74.0,72.0,30.16,West,278,2.0,17.0,92,0.00,,,0.00,,2013-06-23 20:42:00,
2013-06-23 16:53:00,74.0,72.0,30.16,West,278,2.0,17.0,92,0.00,,,0.00,,2013-06-23 20:53:00,
2013-06-23 17:01:00,74.0,72.0,30.16,West,278,2.0,17.0,92,0.00,,,0.00,,2013-06-23 21:01:00,
2013-06-23 17:12:00,74.0,72.0,30.16,South,176,3.0,17.0,92,0.00,,,0.00,,2013-06-23 21:12:00,
2013-06-23 17:22:00,74.0,72.0,30.16,South,176,3.0,17.0,92,0.00,,,0.00,,2013-06-23 21:22:00,
2013-06-23 17:34:00,74.0,72.0,30.16,South,176,3.0,17.0,92,0.00,,,0.00,,2013-06-23 21:34:00,
2013-06-23 17:44:00,72.0,70.0,30.15,South,178,1.0,17.0,94,0.00,,,0.00,,2013-06-23 21:44:00,
2013-06-23 17:52:00,72.0,70.0,30.15,South,178,1.0,17.0,94,0.00,,,0.00,,2013-06-23 21:52:00,
2013-06-23 18:01:00,72.0,70.0,30.15,South,178,1.0,17.0,94,0.00,,,0.00,,2013-06-23 22:01:00,
2013-06-23 18:22:00,71.0,70.0,30.15,SSE,158,0.0,17.0,97,0.00,,,0.00,,2013-06-23 22:22:00,
2013-06-23 18:32:00,71.0,70.0,30.15,SSE,158,0.0,17.0,97,0.00,,,0.00,,2013-06-23 22:32:00,
2013-06-23 18:43:00,71.0,70.0,30.15,SSE,158,0.0,17.0,97,0.00,,,0.00,,2013-06-23 22:43:00,
2013-06-23 18:53:00,71.0,70.0,30.15,SSE,158,0.0,17.0,97,0.00,,,0.00,,2013-06-23 22:53:00,
2013-06-23 19:12:00,69.0,69.0,30.15,SSW,201,1.0,17.0,99,0.00,,,0.00,,2013-06-23 23:12:00,
2013-06-23 19:22:00,69.0,69.0,30.15,SSW,201,1.0,17.0,99,0.00,,,0.00,,2013-06-23 23:22:00,
2013-06-23 19:33:00,69.0,69.0,30.15,SSW,201,1.0,17.0,99,0.00,,,0.00,,2013-06-23 23:33:00,
2013-06-23 19:44:00,70.0,70.0,30.15,South,176,0.0,17.0,99,0.00,,,0.00,,2013-06-23 23:44:00,
2013-06-23 19:52:00,70.0,70.0,30.15,South,176,0.0,17.0,99,0.00,,,0.00,,2013-06-23 23:52:00,
2013-06-23 20:01:00,70.0,70.0,30.15,South,176,0.0,17.0,99,0.00,,,0.00,,2013-06-24 00:01:00,
2013-06-23 20:11:00,68.0,68.0,30.15,SSE,155,0.0,17.0,99,0.00,,,0.00,,2013-06-24 00:11:00,
2013-06-23 20:22:00,68.0,68.0,30.15,SSE,155,0.0,17.0,99,0.00,,,0.00,,2013-06-24 00:22:00,
2013-06-23 20:33:00,68.0,68.0,30.15,SSE,155,0.0,17.0,99,0.00,,,0.00,,2013-06-24 00:33:00,
2013-06-23 20:42:00,67.0,67.0,30.15,SSE,147,2.0,17.0,99,0.00,,,0.00,,2013-06-24 00:42:00,
2013-06-23 20:52:00,67.0,67.0,30.15,SSE,147,2.0,17.0,99,0.00,,,0.00,,2013-06-24 00:52:00,
2013-06-23 21:02:00,67.0,67.0,30.15,SSE,147,2.0,17.0,99,0.00,,,0.00,,2013-06-24 01:02:00,
2013-06-23 21:11:00,67.0,67.0,30.14,South,179,0.0,17.0,99,0.00,,,0.00,,2013-06-24 01:11:00,
2013-06-23 21:22:00,67.0,67.0,30.14,South,179,0.0,17.0,99,0.00,,,0.00,,2013-06-24 01:22:00,
2013-06-23 21:32:00,67.0,67.0,30.14,South,179,0.0,17.0,99,0.00,,,0.00,,2013-06-24 01:32:00,
2013-06-23 21:42:00,65.0,65.0,30.15,SSE,148,0.0,17.0,99,0.00,,,0.00,,2013-06-24 01:42:00,
2013-06-23 21:53:00,65.0,65.0,30.15,SSE,148,0.0,17.0,99,0.00,,,0.00,,2013-06-24 01:53:00,
2013-06-23 22:02:00,65.0,65.0,30.15,SSE,148,0.0,17.0,99,0.00,,,0.00,,2013-06-24 02:02:00,
2013-06-23 22:11:00,66.0,66.0,30.17,South,171,0.0,17.0,99,0.00,,,0.00,,2013-06-24 02:11:00,
2013-06-23 22:22:00,66.0,66.0,30.17,South,171,0.0,17.0,99,0.00,,,0.00,,2013-06-24 02:22:00,
2013-06-23 22:33:00,66.0,66.0,30.17,South,171,0.0,17.0,99,0.00,,,0.00,,2013-06-24 02:33:00,
2013-06-23 22:42:00,65.0,65.0,30.17,SSE,162,0.0,17.0,99,0.00,,,0.00,,2013-06-24 02:42:00,
2013-06-23 22:53:00,65.0,65.0,30.17,SSE,162,0.0,17.0,99,0.00,,,0.00,,2013-06-24 02:53:00,
2013-06-23 23:01:00,65.0,65.0,30.17,SSE,162,0.0,17.0,99,0.00,,,0.00,,2013-06-24 03:01:00,
2013-06-23 23:11:00,66.0,66.0,30.17,SSE,162,0.0,17.0,99,0.00,,,0.00,,2013-06-24 03:11:00,
2013-06-23 23:22:00,66.0,66.0,30.17,SSE,162,0.0,17.0,99,0.00,,,0.00,,2013-06-24 03:22:00,
2013-06-23 23:33:00,66.0,66.0,30.17,SSE,162,0.0,17.0,99,0.00,,,0.00,,2013-06-24 03:33:00,
2013-06-23 23:43:00,65.0,65.0,30.16,SSE,161,0.0,17.0,99,0.00,,,0.00,,2013-06-24 03:43:00,
2013-06-23 23:53:00,65.0,65.0,30.16,SSE,161,0.0,17.0,99,0.00,,,0.00,,2013-06-24 03:53:00,